Location: Unspecified
(0.0000°N, 0.0000°E)
Time: 23:41:27
(UTC+00:00)

S-56A Canister/Altair - Pass Details

Date: 02 October 2020
Orbit: 633 x 2499 km, 38.9° (Epoch: 28 October)

Event Time Altitude Azimuth Distance (km) Brightness Sun altitude
Rises 21:36:41 0° 312° (NW) 4,899 11.9 -56.7°
Enters shadow 21:40:06 - 313° (NW) 3,722 11.2 -57.5°
Reaches altitude 10° 21:40:25 10° 313° (NW) 3,608 - -57.6°
Maximum altitude 21:49:05 85° 42° (NE) 1,064 - -59.8°
Drops below altitude 10° 21:54:48 10° 129° (SE) 2,432 - -61.2°
Sets 21:56:53 0° 130° (SE) 3,223 - -61.7°
